Temp
19 18 15 13 14 15 16 16 18 20 18 18 16 16 16 16 16 16 17 16 16 16 16 16 16 16 16 16 16 16 15 14 15 14 14 14 14 14 15 15 15 15 14
17 14 12 11 11 11 11 12 13 15 16 19 18 18 17 16 16 16 16 16 16 16 16 16 16 16 16 16 16 15 15 15 14 15 15 15 15 14 14 14 14 14 14
11 11 11 10 10 10 10 10 11 12 13 17 19 18 18 17 16 16 16 16 16 16 16 16 15 16 15 15 15 15 15 15 14 15 16 15 16 15 14 14 14 14 14
8 9 9 8 8 9 8 9 9 10 12 13 18 19 18 18 18 17 16 16 16 16 16 16 15 15 15 15 15 15 15 15 14 14 14 16 16 17 15 13 14 14 14
6 6 6 5 5 6 6 6 7 9 11 12 16 18 19 19 19 18 17 16 16 16 16 16 16 15 15 15 15 15 15 15 15 14 14 14 14 14 15 16 13 13 14
4 4 4 4 4 4 4 4 6 7 10 12 14 17 19 19 19 18 17 16 16 16 16 16 16 15 15 15 15 15 15 15 15 14 15 15 15 13 14 15 14 14 13
3 3 3 3 2 2 2 3 5 6 7 10 14 17 18 18 18 18 18 17 16 16 15 16 16 15 15 15 15 15 15 15 15 14 14 14 15 15 14 15 15 13 12
3 2 2 2 1 1 1 2 4 5 6 8 12 17 17 18 18 18 18 17 16 16 15 15 15 16 15 15 15 15 15 15 15 14 14 14 14 14 14 15 15 13 12
2 1 1 1 1 0 0 1 3 4 5 6 8 15 17 17 17 17 17 17 16 16 16 16 16 15 15 15 16 15 15 15 14 14 14 14 14 14 14 14 14 15 14
0 -0 -0 -1 -0 -0 -1 0 1 3 4 5 7 11 17 17 16 16 16 16 16 16 16 15 15 15 15 15 15 15 15 15 14 14 14 14 14 14 14 13 14 14 14
-0 -1 -1 -2 -1 -1 -1 -0 0 1 3 4 6 11 15 16 16 16 16 16 15 15 15 15 15 15 15 15 15 15 15 15 14 14 14 14 14 14 13 13 13 13 13
-1 -1 -2 -2 -2 -2 -2 -1 -1 -0 1 3 5 7 11 15 15 15 15 15 15 14 14 14 15 15 14 14 15 14 14 14 14 14 14 13 13 13 13 13 12 12 13
-1 -2 -2 -2 -2 -2 -2 -2 -2 -1 -0 2 3 4 6 11 14 14 14 14 14 14 14 14 14 14 14 14 14 13 13 13 13 13 13 13 14 13 13 13 13 12 12
-2 -2 -2 -2 -2 -3 -3 -3 -3 -2 -1 1 1 2 2 4 8 12 12 13 13 13 13 13 13 13 12 12 12 12 12 12 12 12 12 12 12 13 13 13 13 12 12
-2 -3 -3 -3 -3 -3 -3 -4 -4 -3 -2 -1 -0 0 1 1 3 6 7 10 10 10 11 10 10 10 10 9 10 11 11 11 11 11 11 11 12 12 12 13 13 12 12
-3 -3 -3 -3 -3 -3 -4 -4 -4 -4 -3 -3 -2 -1 -0 0 -0 0 1 4 4 5 6 5 5 4 3 5 8 9 10 10 9 9 8 8 11 11 12 12 12 13 12
-4 -4 -4 -4 -4 -4 -4 -5 -5 -5 -4 -4 -3 -2 -2 -1 0 -1 -1 -1 -1 0 1 1 1 -0 -1 1 5 7 7 6 6 6 6 7 7 9 10 12 12 12 12
-4 -4 -5 -5 -5 -5 -5 -5 -5 -5 -5 -4 -4 -4 -3 -3 -1 -1 -2 -1 -2 -1 -3 -3 -2 -3 -3 -1 1 3 3 3 2 2 2 3 5 5 7 8 8 7 8
-6 -6 -6 -6 -6 -5 -5 -5 -5 -6 -6 -6 -5 -5 -4 -4 -3 -3 -3 -3 -3 -3 -4 -4 -3 -3 -4 -3 -1 0 0 0 -1 -1 -1 1 2 3 4 5 3 2 2
-7 -8 -7 -7 -7 -7 -6 -6 -5 -6 -7 -6 -6 -6 -5 -4 -4 -4 -3 -3 -3 -4 -4 -4 -4 -4 -4 -3 -2 -2 -3 -3 -3 -3 -3 -3 -2 2 2 2 2 1 1
-8 -9 -8 -8 -8 -8 -6 -6 -6 -6 -7 -7 -7 -7 -6 -5 -5 -4 -4 -4 -4 -4 -4 -4 -4 -5 -5 -5 -3 -2 -4 -5 -5 -6 -5 -5 -5 -4 -1 0 -1 -1 -1
-9 -9 -9 -9 -9 -9 -7 -7 -7 -7 -7 -7 -7 -7 -7 -7 -6 -5 -5 -5 -5 -4 -4 -4 -4 -5 -5 -5 -5 -5 -4 -4 -6 -7 -7 -7 -6 -6 -5 -4 -3 -2 -3
-9 -9 -9 -9 -9 -9 -9 -8 -8 -7 -8 -8 -8 -8 -8 -7 -7 -7 -6 -6 -6 -6 -5 -5 -5 -5 -5 -5 -5 -5 -5 -5 -7 -6 -6 -5 -5 -4 -5 -6 -5 -5 -6
-9 -9 -8 -9 -10 -9 -9 -9 -8 -8 -8 -8 -8 -8 -9 -8 -8 -7 -7 -7 -6 -6 -7 -6 -6 -6 -6 -6 -6 -6 -6 -6 -5 -6 -6 -6 -6 -6 -6 -6 -7 -7 -7
-9 -9 -9 -9 -9 -9 -9 -9 -8 -8 -8 -9 -9 -9 -9 -9 -9 -9 -8 -8 -8 -8 -7 -7 -7 -7 -7 -7 -7 -7 -7 -7 -8 -7 -7 -7 -8 -8 -8 -8 -7 -7 -7
-9 -9 -9 -9 -9 -9 -9 -9 -8 -8 -8 -8 -8 -9 -9 -9 -9 -9 -9 -10 -10 -10 -10 -9 -9 -9 -8 -8 -8 -8 -9 -8 -8 -8 -8 -9 -9 -9 -10 -10 -10 -9 -9
Height
734 732 733 730 728 724 721 718 717 716 721 723 722 726 728 733 735 737 741 746 753 758 761 766 768 772 775 779 783 789 795 799 804 809 811 811 812 813 814 815 816 818 820
729 735 733 731 729 725 720 717 712 711 711 715 715 716 720 723 726 729 734 739 744 749 751 756 759 763 769 773 778 782 788 795 798 803 806 807 809 807 809 810 811 812 815
745 741 737 734 729 725 721 715 710 707 704 706 710 712 715 719 721 724 727 727 733 739 744 750 755 757 760 765 770 775 779 787 792 796 799 804 802 804 802 803 804 805 807
752 748 743 737 732 725 720 713 708 703 698 698 701 701 703 703 706 710 714 718 724 730 735 741 748 753 754 759 763 768 773 779 785 792 792 794 796 797 799 799 798 801 803
755 752 749 743 736 728 719 712 706 699 693 690 691 692 693 693 700 704 707 712 715 722 726 731 738 746 748 751 756 761 767 771 777 781 786 791 793 795 794 792 795 796 797
758 752 749 744 736 727 720 711 704 696 688 682 679 682 682 686 690 693 697 702 709 714 720 727 729 736 741 745 748 754 760 764 770 774 778 780 784 786 789 789 789 789 790
758 753 748 742 736 727 719 711 703 692 683 675 670 672 675 681 683 685 688 694 701 707 711 715 722 728 733 737 743 748 752 757 762 767 770 773 775 777 780 783 784 785 786
760 755 751 745 737 727 718 710 700 689 680 672 665 665 668 673 677 680 683 689 695 700 705 709 717 720 729 732 737 742 744 749 755 759 763 765 767 770 772 773 777 780 779
763 759 754 746 736 728 717 708 697 687 679 669 662 660 663 666 670 675 680 684 689 694 700 704 710 716 722 727 732 735 739 742 748 752 755 757 760 762 765 767 767 771 773
768 761 754 746 737 729 718 708 696 685 676 668 661 656 657 662 667 671 674 679 683 689 695 700 705 710 716 722 727 730 733 737 741 745 748 751 753 755 757 759 760 762 764
771 764 757 748 739 730 718 708 697 686 675 666 660 655 656 660 664 667 671 675 680 683 690 697 702 706 711 717 721 726 728 732 736 740 742 744 746 748 749 751 753 754 756
774 768 757 746 737 726 717 710 690 684 678 673 666 661 658 660 664 666 670 674 678 683 690 694 698 704 709 712 717 721 725 728 732 735 737 737 739 739 741 742 742 745 746
776 771 762 748 736 732 722 707 701 692 684 679 671 665 662 661 664 666 670 674 678 683 690 695 698 702 707 711 714 718 722 725 728 730 731 732 732 731 732 731 732 734 737
778 769 760 754 746 734 721 712 709 700 693 687 679 676 673 669 666 669 671 677 682 688 693 695 698 702 707 709 712 716 718 721 723 725 726 725 724 722 721 721 721 724 727
781 774 766 756 745 738 734 725 720 708 700 695 688 687 684 679 675 672 676 679 684 688 691 695 699 701 704 709 711 714 716 718 720 720 720 718 716 714 714 714 712 712 715
791 785 776 766 756 747 739 733 727 722 714 708 704 699 695 691 686 687 687 687 690 691 694 698 699 701 711 710 710 711 714 716 717 717 714 711 707 704 702 702 702 702 701
797 791 785 777 769 760 753 745 738 731 724 718 712 709 706 707 699 702 698 697 702 697 693 704 706 712 714 712 710 710 712 715 714 712 708 704 702 697 693 691 690 690 690
805 800 793 786 778 770 762 757 749 742 736 732 727 719 719 718 708 708 705 706 713 705 712 712 716 717 717 713 711 713 712 713 713 711 707 704 700 695 689 687 686 684 685
813 808 802 795 786 778 774 768 760 754 748 742 739 736 730 725 725 724 717 726 724 721 720 724 723 721 721 719 717 712 715 714 713 713 711 707 701 695 690 690 684 687 684
817 813 807 801 792 788 785 778 772 767 762 759 756 751 747 743 742 738 735 733 734 732 733 733 733 732 728 725 721 715 719 720 717 716 716 712 707 698 697 694 693 690 692
823 818 814 807 803 798 792 785 782 777 777 773 768 762 756 754 753 751 749 748 744 743 740 739 740 739 734 732 726 724 722 726 725 722 721 718 714 705 702 700 700 698 699
826 822 819 815 810 805 800 797 792 790 786 781 777 773 771 768 765 764 762 758 756 753 751 752 751 749 743 742 738 731 730 732 730 728 729 727 720 714 710 707 708 707 706
831 828 825 821 816 813 809 805 803 798 793 789 786 782 780 778 775 771 769 766 763 761 762 758 756 756 755 752 748 744 740 736 738 735 733 731 725 722 719 718 717 717 716
836 832 828 825 822 819 814 812 809 803 799 795 792 790 787 785 781 779 778 776 775 773 771 768 768 767 764 761 755 753 751 748 744 742 738 734 734 730 729 728 728 729 728
841 838 834 830 827 824 820 817 814 810 807 805 801 798 796 794 792 791 791 789 788 786 783 781 779 776 773 770 767 763 760 756 752 750 745 740 740 739 738 739 738 739 738
845 843 841 837 835 832 829 825 822 818 814 811 809 808 806 805 803 801 800 798 796 793 791 788 786 784 781 777 774 769 765 761 757 754 755 753 750 750 751 749 749 746 747
Wind_Speed
20 19 11 15 17 17 20 21 23 30 24 24 27 28 30 31 32 36 38 33 33 36 36 31 35 34 34 35 34 30 26 19 22 13 12 15 20 22 26 26 26 24 26
19 13 18 17 16 18 16 17 16 20 22 27 28 30 32 33 35 35 33 34 36 38 41 36 38 38 33 34 34 32 19 21 26 12 7 4 12 19 22 23 25 28 27
18 18 20 22 23 21 21 22 21 20 19 24 27 26 26 27 28 29 33 42 41 38 40 38 35 39 35 34 35 34 29 21 23 26 9 3 5 4 13 28 29 29 28
18 19 20 25 27 27 24 26 25 25 23 19 27 31 31 29 33 35 35 37 42 38 40 42 38 36 35 32 36 36 33 24 19 21 26 14 3 4 3 9 21 27 30
17 19 19 26 26 26 29 26 27 27 25 22 26 32 34 32 32 32 32 34 37 40 40 45 42 36 35 37 35 34 34 32 24 23 14 24 19 11 6 5 4 18 25
18 18 25 26 26 27 29 29 27 26 23 20 27 36 36 33 30 32 30 30 31 35 38 36 41 41 38 36 39 37 36 33 28 26 23 20 11 13 10 6 6 11 15
18 17 20 23 28 29 30 29 27 26 22 21 23 36 36 33 32 31 30 29 29 31 37 43 41 39 40 37 36 36 35 35 33 29 28 27 26 21 21 17 10 6 11
18 17 18 24 26 28 29 30 27 25 22 19 12 28 31 31 30 29 26 27 28 30 29 37 34 37 36 35 34 32 36 35 35 32 30 28 29 26 24 22 16 4 8
20 19 21 25 28 29 30 30 27 25 22 21 14 14 25 28 26 24 25 26 27 29 32 33 36 33 35 33 31 31 33 32 33 33 32 31 27 28 27 25 22 18 6
19 18 18 25 28 28 29 26 25 24 23 23 19 9 22 26 25 26 25 26 25 30 30 29 31 31 31 30 29 27 27 29 29 29 29 30 28 27 28 27 25 27 22
17 16 18 26 26 26 27 24 24 25 28 30 27 18 10 20 23 24 22 22 25 28 28 26 25 26 26 27 26 25 25 26 25 26 26 26 28 27 27 27 27 28 27
16 15 18 24 25 26 26 25 33 32 30 29 27 24 12 13 16 18 21 23 22 22 22 23 23 23 25 23 20 22 21 22 21 21 25 28 27 29 30 29 30 29 29
18 15 15 17 22 25 26 32 31 31 32 30 30 29 27 19 10 14 15 16 17 19 21 21 21 19 17 16 13 14 16 17 18 20 23 26 27 30 30 32 30 33 33
19 18 18 18 25 29 34 32 33 35 34 30 32 31 30 27 25 18 16 13 12 15 15 15 14 12 9 7 6 8 11 14 18 20 21 27 28 28 30 34 32 34 31
20 19 19 19 29 32 32 33 33 37 36 35 35 32 32 31 30 28 26 25 23 21 20 19 18 15 10 5 3 6 8 11 14 17 22 27 30 34 36 32 33 36 33
18 19 20 23 28 33 35 35 35 34 35 30 32 33 33 37 37 30 28 28 27 25 24 23 21 19 14 12 2 6 8 9 13 14 16 16 20 24 37 37 42 39 33
18 19 19 24 28 31 32 31 32 34 35 37 36 38 36 30 41 32 34 35 30 31 32 25 22 23 25 21 8 2 3 6 6 8 12 16 17 20 20 27 33 47 52
16 16 23 27 30 33 33 32 34 34 35 35 36 39 34 32 40 39 39 37 33 37 32 33 29 29 34 25 17 7 5 7 10 14 16 14 15 17 16 15 13 13 16
17 18 21 24 28 32 31 31 34 35 37 38 38 37 38 38 35 32 34 27 26 31 32 31 32 33 36 31 21 16 14 14 18 20 25 20 17 14 11 5 11 13 14
20 21 23 24 29 30 29 29 32 34 35 34 33 33 34 34 34 31 30 28 30 31 31 32 32 28 33 33 30 24 22 24 23 25 28 32 24 11 5 9 12 19 14
19 21 21 24 26 28 28 30 31 33 30 30 32 35 36 35 33 31 32 28 29 28 30 32 32 32 35 34 33 29 28 23 23 25 26 31 30 28 16 12 15 16 16
19 23 21 23 27 28 27 27 29 28 29 30 31 32 32 32 31 31 29 31 28 29 29 27 27 30 33 32 31 31 28 25 26 24 25 23 26 32 31 27 21 18 19
15 18 19 22 29 30 27 27 26 28 29 30 31 30 30 29 31 32 31 30 29 28 26 26 27 27 29 29 29 27 27 27 26 25 24 24 27 27 31 31 27 26 24
16 15 18 22 24 28 31 28 28 28 30 31 30 28 28 28 30 30 30 31 30 27 25 25 23 23 25 28 27 23 21 20 21 23 28 30 31 34 32 32 33 31 30
13 15 17 19 21 22 28 30 29 28 25 25 27 26 25 24 22 25 29 27 30 30 25 23 22 23 23 25 22 20 17 14 16 16 21 26 27 27 28 30 31 29 28
11 14 15 17 18 19 21 23 23 23 23 24 24 24 22 21 20 18 17 21 23 25 25 26 24 20 20 18 19 20 19 17 17 19 20 20 20 21 19 20 21 25 23
Wind_Direction
301 299 302 314 311 298 292 285 276 271 247 229 211 211 213 212 213 215 219 214 210 210 211 209 210 207 206 210 211 208 210 204 209 203 224 235 238 237 241 240 242 243 250
326 330 330 331 329 318 310 305 294 276 255 234 225 215 211 216 218 214 212 211 212 209 211 207 207 205 201 207 210 204 193 205 204 194 187 220 238 235 235 238 241 242 240
347 341 337 334 329 323 320 313 303 290 273 241 233 221 213 215 209 210 210 214 212 207 208 207 207 205 199 201 205 204 197 197 201 207 184 191 231 199 225 236 238 236 230
351 343 337 334 330 323 319 314 306 295 279 263 231 214 209 209 211 207 211 210 208 205 206 209 208 206 200 198 202 205 201 195 197 201 217 224 198 213 216 236 234 232 229
351 340 337 331 325 325 324 321 310 296 283 267 234 220 215 214 209 207 210 209 204 207 204 206 207 208 201 204 202 200 201 202 198 200 198 225 230 243 240 236 218 226 231
345 341 333 333 329 330 326 327 317 305 292 285 237 222 217 212 206 205 202 205 204 202 205 203 205 207 205 205 206 204 203 202 205 207 207 198 204 206 209 231 218 224 228
348 343 339 335 331 329 327 325 318 314 311 304 243 220 219 216 212 207 201 198 198 198 204 202 202 201 206 205 202 200 203 207 209 211 213 214 219 220 217 223 223 210 216
352 345 338 331 331 326 328 322 321 324 323 318 297 223 216 217 215 210 202 198 199 205 202 201 199 202 205 206 201 202 207 210 214 216 217 218 220 219 218 219 220 217 206
349 343 335 334 335 331 329 322 326 331 333 329 326 232 215 209 210 205 198 194 197 198 206 199 201 202 205 201 201 204 206 211 217 220 222 221 224 223 224 223 214 220 225
346 341 338 333 336 331 327 329 336 340 342 344 345 313 210 207 204 199 197 199 198 206 203 197 197 194 205 204 204 203 213 211 217 222 223 226 229 230 227 225 228 225 228
343 342 335 335 333 335 335 340 350 356 358 356 353 1 192 205 208 203 200 196 196 197 199 195 192 201 204 206 211 219 217 217 219 226 230 236 234 235 234 227 236 232 227
346 342 337 336 343 348 347 351 6 4 3 3 2 13 48 193 196 195 193 195 191 191 188 192 197 197 201 205 212 219 228 225 232 237 239 239 234 235 239 236 226 227 225
354 350 350 349 354 350 353 7 7 6 11 10 15 19 29 45 165 178 182 190 188 193 194 185 180 186 190 192 202 224 231 237 242 247 246 249 251 245 245 229 229 226 222
358 353 354 355 359 9 9 8 7 11 12 14 27 24 22 32 52 80 103 120 148 158 158 146 139 137 138 151 192 231 245 255 263 266 265 265 263 258 250 233 228 226 218
3 360 356 354 2 10 11 10 11 14 15 21 27 25 28 36 52 73 81 93 97 94 97 97 99 102 91 44 265 253 262 269 275 279 278 270 263 261 256 252 239 227 215
4 0 360 2 6 8 8 9 12 18 20 22 29 31 34 39 44 46 57 81 82 84 86 74 67 60 29 10 314 255 254 263 263 278 290 291 284 279 260 257 255 231 217
3 1 5 6 6 9 10 11 13 17 25 26 25 35 32 36 52 42 52 55 56 70 71 65 62 46 25 15 6 356 267 264 295 312 320 321 315 300 282 271 268 247 228
5 3 6 7 9 12 15 18 22 24 28 30 30 34 31 33 46 47 46 51 53 62 60 59 57 49 33 27 26 37 58 40 29 18 4 352 341 331 313 285 256 226 228
6 1 8 14 16 17 14 23 27 28 27 25 27 29 31 37 39 41 50 49 53 55 56 55 55 52 41 38 41 54 51 53 44 33 29 17 8 359 339 255 132 106 97
19 11 13 20 21 14 19 27 31 29 26 24 27 31 36 38 38 39 43 49 57 60 57 54 48 48 49 44 45 54 50 41 44 41 34 32 31 28 61 108 120 108 98
23 20 23 25 21 17 23 28 29 29 26 30 35 37 39 39 38 41 43 43 47 49 50 51 47 46 45 42 48 50 58 50 44 39 33 33 33 46 62 80 82 90 102
25 22 24 27 25 24 28 30 30 23 28 34 38 39 40 42 42 43 41 43 45 46 45 43 41 35 40 45 45 53 59 60 59 51 43 40 44 47 51 65 83 93 90
32 31 29 30 33 33 31 31 24 25 33 38 38 39 40 42 43 44 41 39 38 40 39 38 36 31 28 29 42 51 61 67 60 66 65 60 62 65 60 58 69 68 68
29 30 37 35 29 32 39 36 35 40 39 36 35 35 38 39 42 42 42 42 38 36 35 34 32 31 31 29 27 28 40 52 65 69 71 71 69 69 70 67 65 58 60
33 33 38 38 31 30 36 36 34 39 38 38 36 35 35 37 40 47 44 44 45 42 39 35 35 28 29 29 33 38 39 44 57 59 63 60 50 47 52 61 69 67 65
47 44 43 44 36 36 32 32 31 34 38 39 37 35 35 35 38 41 46 49 49 46 44 41 40 34 32 30 35 42 47 54 62 60 51 50 55 55 50 50 49 63 65